SCP
0 0 0 0 0 0 0 0 0 0 0 0 0 0 0 0 0 0 0 0 0 0 0 0 0 0 0 0 0 0 0 0 0 0 0 0 0 0
0 0 0 0 0 0 0 0 0 0 0 0 0 0 0 0 0 0 0 0 0 0 0 0 0 0 0 0 0 0 0 0 0 0 0 0 0 0
0 0 0 0 0 0 0 0 0 0 0 0 0 0 0 0 0 0 0 0 0 0 0 0 0 0 0 0 0 0 0 0 0 0 0 0 0 0
0 0 0 0 0 0 0 0 0 0 0 0 0 0 0 0 0 0 0 0 0 0 0 0 0 0 0 0 0 0 0 0 0 0 0 0 0 0
0 0 0 0 0 0 0 0 0 0 0 0 0 0 0 0 0 0 0 0 0 0 0 0 0 0 0 0 0 0 0 0 0 0 0 0 0 0
0 0 0 0 0 0 0 0 0 0 0 0 0 0 0 0 0 0 0 0 0 0 0 0 0 0 0 0 0 0 0 0 0 0 0 0 0 0
0 0 0 0 0 0 0 0 0 0 0 0 0 0 0 0 0 0 0 0 0 0 0 0 0 0 0 0 0 0 0 0 0 0 0 0 0 0
0 0 0 0 0 0 0 0 0 0 0 0 0 0 0 0 0 0 0 0 0 0 0 0 0 0 0 0 0 0 0 0 0 0 0 0 0 0
0 0 0 0 0 0 0 0 0 0 0 0 0 0 0 0 0 0 0 0 0 0 0 0 0 0 0 0 0 0 0 0 0 0 0 0 0 0
0 0 0 0 0 0 0 0 0 0 0 0 0 0 0 0 0 0 0 0 0 0 0 0 0 0 0 0 0 0 0 0 0 0 0 0 0 0
0 0 0 0 0 0 0 0 0 0 0 0 -0 0 0 0 0 0 0 0 0 0 0 0 0 0 0 0 0 0 0 0 0 0 0 0 0 0
0 0 0 0 0 0 0 0 0 0 0 -0 0 0 0 0 0 0 0 0 0 0 0 0 0 0 0 0 0 0 0 0 0 0 0 0 0 0
0 0 0 0 0 0 0 0 0 0 -0 -0 -0 -0 0 0 0 0 0 0 0 0 0 0 0 0 0 0 0 0 0 0 0 0 0 0 0 0
0 0 0 0 0 0 0 0 0 0 0 0 -0 -0 0 0 0 0 0 0 0 0 0 0 0 0 0 0 0 0 0 0 0 0 0 0 0 0
0 0 0 0 0 0 0 0 0 0 0 0 0 0 0 0 0 0 0 0 0 0 0 0 0 0 0 0 0 0 0 0 0 0 0 0 0 0
0 0 0 0 0 0 0 0 0 0 0 0 0 0 0 0 0 0 0 0 0 0 0 0 0 0 0 0 0 0 0 0 0 0 0 0 0 0
0 0 0 0 0 0 0 0 0 0 0 0 0 0 0 0 0 0 0 0 0 0 0 0 0 0 0 0 0 0 0 0 0 0 0 0 0 0
0 0 0 0 0 0 0 0 0 0 0 0 0 0 0 0 0 0 0 0 0 0 0 0 0 0 0 0 0 0 0 0 0 0 0 0 0 0
0 0 0 0 0 0 0 0 0 0 0 0 0 0 0 0 0 0 0 0 0 0 0 0 0 0 0 0 0 0 0 0 0 0 0 0 0 0
0 0 0 0 0 0 0 0 0 0 0 0 0 0 0 0 0 0 0 0 0 0 0 0 0 0 0 0 0 0 0 0 0 0 0 0 0 0
0 0 0 0 0 0 0 0 0 0 0 0 0 0 0 0 0 0 0 0 0 0 0 0 0 0 0 0 0 0 0 0 0 0 0 0 0 0
0 0 0 0 0 0 0 0 0 0 0 0 0 0 0 0 0 0 0 0 0 0 0 0 0 0 0 0 0 0 0 0 0 0 0 0 0 0
0 0 0 0 0 0 0 0 0 0 0 0 0 0 0 0 0 0 0 0 0 0 0 0 0 0 0 0 0 0 0 0 0 0 0 0 0 0
Wind_Speed_500mb
58 57 64 71 77 81 73 90 98 77 70 89 88 113 115 117 114 104 95 81 77 80 73 64 62 61 51 46 46 41 40 42 51 47 33 36 21 19
57 62 70 75 76 81 85 85 82 98 87 97 103 104 120 125 121 111 98 81 84 78 73 66 64 60 53 51 52 43 44 54 49 35 36 30 24 27
59 64 67 63 71 82 83 89 95 91 83 75 87 95 98 119 118 105 93 85 81 79 75 69 67 62 56 53 50 44 42 48 48 44 48 35 40 45
59 62 67 67 74 79 77 83 88 89 91 77 72 93 109 112 118 110 96 85 80 78 75 74 71 65 64 60 55 49 47 49 56 44 35 38 40 40
54 56 56 56 64 69 79 87 80 80 76 81 80 75 79 91 112 111 104 89 80 80 77 74 68 62 58 55 52 45 45 41 39 36 36 41 41 31
50 51 50 52 54 55 57 67 79 83 81 75 76 80 99 92 101 112 100 92 93 84 75 71 69 56 51 47 43 40 34 34 37 39 40 40 38 35
37 38 41 44 47 54 53 50 50 66 73 77 65 75 89 95 110 102 96 89 85 88 76 69 64 59 55 43 36 34 31 28 30 30 32 32 31 30
29 30 33 37 36 37 44 43 39 47 64 72 72 88 100 107 105 105 98 85 71 73 83 71 59 53 49 46 41 39 31 34 32 30 32 26 28 29
27 28 30 32 33 35 33 26 23 21 22 44 57 71 96 108 108 97 90 89 87 69 62 53 51 42 36 36 32 27 24 23 28 35 33 32 33 34
24 25 25 27 29 31 31 23 15 11 9 14 41 63 81 85 88 92 90 77 51 44 44 44 38 43 40 34 25 24 20 26 30 36 34 29 31 32
20 17 19 22 22 21 21 16 14 17 18 13 4 31 44 61 72 69 65 57 48 48 43 38 41 36 30 24 19 15 17 19 25 29 21 23 25 25
16 16 16 19 18 14 10 10 16 25 23 26 29 31 35 38 38 41 52 51 51 44 36 36 43 32 18 23 26 26 28 24 23 27 19 20 17 20
13 15 12 11 9 9 9 10 24 27 28 27 34 37 39 35 33 35 34 29 41 34 45 32 39 39 23 20 35 31 25 22 20 21 19 18 20 25
9 8 6 8 11 13 13 15 17 19 25 28 31 34 38 38 37 36 32 29 21 9 23 33 37 38 37 22 18 23 19 17 16 16 17 20 21 25
3 4 1 2 6 9 13 15 16 18 21 22 24 28 28 29 27 23 20 18 20 14 17 23 28 30 32 23 16 14 12 12 16 17 17 15 20 25
9 10 10 10 6 7 9 12 10 12 13 19 25 28 27 27 26 23 26 27 22 20 20 18 16 17 17 16 12 11 12 10 9 14 20 21 23 26
13 15 18 18 15 12 11 12 9 12 14 16 19 25 27 28 28 26 23 22 20 20 19 17 15 13 12 10 10 12 14 15 17 21 24 29 31 35
17 16 18 20 17 14 12 14 12 9 10 13 17 21 22 22 23 23 22 20 18 17 15 13 10 8 7 5 7 8 13 17 19 24 32 45 55 51
22 18 18 19 18 15 15 19 15 9 8 12 14 16 17 18 19 21 21 17 14 9 4 3 6 6 4 3 12 14 18 26 36 44 50 49 54 55
21 19 20 18 15 14 14 18 17 12 14 12 12 11 10 10 16 17 18 17 14 12 9 9 12 14 16 16 18 22 33 38 38 42 48 55 60 63
29 23 23 23 20 18 21 17 16 17 19 19 18 16 18 18 19 15 13 13 14 15 19 23 21 18 21 25 29 28 24 30 36 46 53 62 69 75
34 34 26 25 23 22 21 20 19 19 25 23 20 17 16 19 18 16 13 12 13 12 11 14 19 23 24 25 29 38 46 49 50 55 55 53 52 63
35 32 25 21 21 21 22 23 21 19 18 23 20 16 16 19 21 18 16 12 11 12 14 16 19 21 26 34 43 51 56 60 62 61 58 51 56 58
Wind_Direction_500mb
276 277 275 274 275 272 279 262 252 241 234 230 226 230 230 234 237 239 239 234 237 226 225 225 223 221 214 200 195 191 182 175 190 207 219 219 223 217
282 276 274 276 276 276 272 269 272 254 249 236 230 231 228 232 235 236 235 231 229 229 223 221 223 220 216 210 205 200 192 187 211 224 223 224 223 224
295 291 286 282 279 273 271 270 265 265 270 256 231 228 229 225 226 228 230 225 218 223 218 220 217 215 213 213 213 206 204 198 216 225 228 223 223 221
301 296 292 288 277 276 276 273 264 265 260 266 246 235 228 224 227 221 219 217 220 217 215 216 214 212 210 210 211 206 210 216 228 235 231 229 231 230
309 309 311 305 291 281 275 270 270 268 264 259 253 230 213 213 212 211 208 209 211 212 209 213 213 215 213 214 211 214 222 222 230 231 223 224 231 232
314 316 315 316 313 305 290 274 265 262 266 264 243 234 209 206 211 202 194 204 203 207 205 211 209 208 205 205 203 203 213 220 223 222 225 228 230 228
322 324 327 324 322 315 312 300 278 268 261 257 245 205 194 191 197 194 191 182 189 196 198 201 203 199 199 199 205 205 204 212 222 227 235 236 237 237
332 333 334 332 324 319 302 303 297 274 254 243 228 217 198 195 194 196 197 186 176 198 203 202 200 203 223 216 208 214 210 221 225 238 247 248 238 237
335 336 340 340 341 344 336 315 286 286 266 230 224 199 191 194 196 192 196 192 190 185 196 199 208 215 221 215 194 204 205 214 226 231 231 232 233 240
334 338 338 341 341 349 348 339 348 340 309 268 239 210 199 194 196 194 185 185 179 175 180 178 184 187 193 188 188 179 202 215 221 230 229 225 228 232
336 344 353 355 356 349 346 11 40 57 68 73 175 214 207 191 194 190 182 178 157 162 176 170 172 178 180 191 208 214 237 246 232 236 226 226 234 239
330 338 349 359 358 6 1 40 74 92 97 116 119 132 158 168 185 198 191 180 170 161 171 169 178 174 174 216 224 237 252 252 230 234 235 226 228 243
313 323 346 14 19 40 64 89 98 116 113 115 122 130 138 148 154 167 172 180 174 165 180 175 185 190 194 203 218 232 237 227 217 211 215 233 248 260
301 302 348 39 55 79 103 111 121 125 117 117 125 127 133 137 140 148 148 149 153 171 186 194 199 205 207 197 171 189 202 206 217 224 239 254 265 274
238 241 262 52 56 85 83 87 111 115 118 124 133 132 138 137 143 154 156 157 172 180 186 195 209 208 208 216 214 210 219 238 249 253 256 253 266 268
233 223 201 213 181 148 130 124 126 114 131 150 154 154 155 155 164 175 170 170 182 168 165 169 180 188 203 216 230 252 262 256 258 269 279 272 273 278
219 209 206 212 199 178 151 148 140 111 121 133 158 160 162 164 165 165 166 168 173 166 169 172 175 184 196 205 217 238 254 260 258 263 279 283 282 283
199 210 206 207 210 199 187 180 169 152 135 140 158 158 157 159 162 160 163 159 153 148 151 152 157 162 186 178 216 242 272 273 286 287 291 295 295 294
200 211 213 206 217 216 191 194 188 174 148 145 152 152 151 150 158 158 157 152 138 127 111 36 359 321 304 278 272 285 290 293 291 293 294 293 296 299
205 207 214 207 231 209 193 190 186 189 186 174 169 164 155 160 153 149 159 167 172 180 205 246 262 274 285 283 279 283 285 292 294 298 305 306 307 309
197 215 220 217 221 224 210 199 202 199 190 185 184 185 182 174 179 170 163 175 199 219 231 248 264 271 277 287 293 298 303 311 312 309 311 310 310 307
198 218 218 221 219 212 212 213 206 201 199 193 195 195 193 187 192 197 210 237 244 251 259 267 277 286 297 299 304 314 319 318 312 307 304 300 298 294
202 215 218 222 213 212 213 217 221 215 209 201 201 205 204 208 211 220 236 248 264 268 270 272 278 287 306 316 316 313 311 309 310 309 306 304 301 301
Wind_Speed_850mb
58 57 64 71 77 81 73 90 98 77 70 89 88 113 115 117 114 104 95 81 77 80 73 64 62 61 51 46 46 41 40 42 51 47 33 36 21 19
57 62 70 75 76 81 85 85 82 98 87 97 103 104 120 125 121 111 98 81 84 78 73 66 64 60 53 51 52 43 44 54 49 35 36 30 24 27
59 64 67 63 71 82 83 89 95 91 83 75 87 95 98 119 118 105 93 85 81 79 75 69 67 62 56 53 50 44 42 48 48 44 48 35 40 45
59 62 67 67 74 79 77 83 88 89 91 77 72 93 109 112 118 110 96 85 80 78 75 74 71 65 64 60 55 49 47 49 56 44 35 38 40 40
54 56 56 56 64 69 79 87 80 80 76 81 80 75 79 91 112 111 104 89 80 80 77 74 68 62 58 55 52 45 45 41 39 36 36 41 41 31
50 51 50 52 54 55 57 67 79 83 81 75 76 80 99 92 101 112 100 92 93 84 75 71 69 56 51 47 43 40 34 34 37 39 40 40 38 35
37 38 41 44 47 54 53 50 50 66 73 77 65 75 89 95 110 102 96 89 85 88 76 69 64 59 55 43 36 34 31 28 30 30 32 32 31 30
29 30 33 37 36 37 44 43 39 47 64 72 72 88 100 107 105 105 98 85 71 73 83 71 59 53 49 46 41 39 31 34 32 30 32 26 28 29
27 28 30 32 33 35 33 26 23 21 22 44 57 71 96 108 108 97 90 89 87 69 62 53 51 42 36 36 32 27 24 23 28 35 33 32 33 34
24 25 25 27 29 31 31 23 15 11 9 14 41 63 81 85 88 92 90 77 51 44 44 44 38 43 40 34 25 24 20 26 30 36 34 29 31 32
20 17 19 22 22 21 21 16 14 17 18 13 4 31 44 61 72 69 65 57 48 48 43 38 41 36 30 24 19 15 17 19 25 29 21 23 25 25
16 16 16 19 18 14 10 10 16 25 23 26 29 31 35 38 38 41 52 51 51 44 36 36 43 32 18 23 26 26 28 24 23 27 19 20 17 20
13 15 12 11 9 9 9 10 24 27 28 27 34 37 39 35 33 35 34 29 41 34 45 32 39 39 23 20 35 31 25 22 20 21 19 18 20 25
9 8 6 8 11 13 13 15 17 19 25 28 31 34 38 38 37 36 32 29 21 9 23 33 37 38 37 22 18 23 19 17 16 16 17 20 21 25
3 4 1 2 6 9 13 15 16 18 21 22 24 28 28 29 27 23 20 18 20 14 17 23 28 30 32 23 16 14 12 12 16 17 17 15 20 25
9 10 10 10 6 7 9 12 10 12 13 19 25 28 27 27 26 23 26 27 22 20 20 18 16 17 17 16 12 11 12 10 9 14 20 21 23 26
13 15 18 18 15 12 11 12 9 12 14 16 19 25 27 28 28 26 23 22 20 20 19 17 15 13 12 10 10 12 14 15 17 21 24 29 31 35
17 16 18 20 17 14 12 14 12 9 10 13 17 21 22 22 23 23 22 20 18 17 15 13 10 8 7 5 7 8 13 17 19 24 32 45 55 51
22 18 18 19 18 15 15 19 15 9 8 12 14 16 17 18 19 21 21 17 14 9 4 3 6 6 4 3 12 14 18 26 36 44 50 49 54 55
21 19 20 18 15 14 14 18 17 12 14 12 12 11 10 10 16 17 18 17 14 12 9 9 12 14 16 16 18 22 33 38 38 42 48 55 60 63
29 23 23 23 20 18 21 17 16 17 19 19 18 16 18 18 19 15 13 13 14 15 19 23 21 18 21 25 29 28 24 30 36 46 53 62 69 75
34 34 26 25 23 22 21 20 19 19 25 23 20 17 16 19 18 16 13 12 13 12 11 14 19 23 24 25 29 38 46 49 50 55 55 53 52 63
35 32 25 21 21 21 22 23 21 19 18 23 20 16 16 19 21 18 16 12 11 12 14 16 19 21 26 34 43 51 56 60 62 61 58 51 56 58
Wind_Direction_850mb
276 277 275 274 275 272 279 262 252 241 234 230 226 230 230 234 237 239 239 234 237 226 225 225 223 221 214 200 195 191 182 175 190 207 219 219 223 217
282 276 274 276 276 276 272 269 272 254 249 236 230 231 228 232 235 236 235 231 229 229 223 221 223 220 216 210 205 200 192 187 211 224 223 224 223 224
295 291 286 282 279 273 271 270 265 265 270 256 231 228 229 225 226 228 230 225 218 223 218 220 217 215 213 213 213 206 204 198 216 225 228 223 223 221
301 296 292 288 277 276 276 273 264 265 260 266 246 235 228 224 227 221 219 217 220 217 215 216 214 212 210 210 211 206 210 216 228 235 231 229 231 230
309 309 311 305 291 281 275 270 270 268 264 259 253 230 213 213 212 211 208 209 211 212 209 213 213 215 213 214 211 214 222 222 230 231 223 224 231 232
314 316 315 316 313 305 290 274 265 262 266 264 243 234 209 206 211 202 194 204 203 207 205 211 209 208 205 205 203 203 213 220 223 222 225 228 230 228
322 324 327 324 322 315 312 300 278 268 261 257 245 205 194 191 197 194 191 182 189 196 198 201 203 199 199 199 205 205 204 212 222 227 235 236 237 237
332 333 334 332 324 319 302 303 297 274 254 243 228 217 198 195 194 196 197 186 176 198 203 202 200 203 223 216 208 214 210 221 225 238 247 248 238 237
335 336 340 340 341 344 336 315 286 286 266 230 224 199 191 194 196 192 196 192 190 185 196 199 208 215 221 215 194 204 205 214 226 231 231 232 233 240
334 338 338 341 341 349 348 339 348 340 309 268 239 210 199 194 196 194 185 185 179 175 180 178 184 187 193 188 188 179 202 215 221 230 229 225 228 232
336 344 353 355 356 349 346 11 40 57 68 73 175 214 207 191 194 190 182 178 157 162 176 170 172 178 180 191 208 214 237 246 232 236 226 226 234 239
330 338 349 359 358 6 1 40 74 92 97 116 119 132 158 168 185 198 191 180 170 161 171 169 178 174 174 216 224 237 252 252 230 234 235 226 228 243
313 323 346 14 19 40 64 89 98 116 113 115 122 130 138 148 154 167 172 180 174 165 180 175 185 190 194 203 218 232 237 227 217 211 215 233 248 260
301 302 348 39 55 79 103 111 121 125 117 117 125 127 133 137 140 148 148 149 153 171 186 194 199 205 207 197 171 189 202 206 217 224 239 254 265 274
238 241 262 52 56 85 83 87 111 115 118 124 133 132 138 137 143 154 156 157 172 180 186 195 209 208 208 216 214 210 219 238 249 253 256 253 266 268
233 223 201 213 181 148 130 124 126 114 131 150 154 154 155 155 164 175 170 170 182 168 165 169 180 188 203 216 230 252 262 256 258 269 279 272 273 278
219 209 206 212 199 178 151 148 140 111 121 133 158 160 162 164 165 165 166 168 173 166 169 172 175 184 196 205 217 238 254 260 258 263 279 283 282 283
199 210 206 207 210 199 187 180 169 152 135 140 158 158 157 159 162 160 163 159 153 148 151 152 157 162 186 178 216 242 272 273 286 287 291 295 295 294
200 211 213 206 217 216 191 194 188 174 148 145 152 152 151 150 158 158 157 152 138 127 111 36 359 321 304 278 272 285 290 293 291 293 294 293 296 299
205 207 214 207 231 209 193 190 186 189 186 174 169 164 155 160 153 149 159 167 172 180 205 246 262 274 285 283 279 283 285 292 294 298 305 306 307 309
197 215 220 217 221 224 210 199 202 199 190 185 184 185 182 174 179 170 163 175 199 219 231 248 264 271 277 287 293 298 303 311 312 309 311 310 310 307
198 218 218 221 219 212 212 213 206 201 199 193 195 195 193 187 192 197 210 237 244 251 259 267 277 286 297 299 304 314 319 318 312 307 304 300 298 294
202 215 218 222 213 212 213 217 221 215 209 201 201 205 204 208 211 220 236 248 264 268 270 272 278 287 306 316 316 313 311 309 310 309 306 304 301 301